Location: Fort Wayne
(41.1310°N, 85.1290°W)
Time: 20:32:59
(UTC-04:00)

Amateur Radio Satellites - All Passes

Search period start: 27 April 2015 20:02
Search period end: 28 April 2015 20:02
Location: Fort Wayne, 41.1310°N, 85.1290°W

Satellite Date Start Highest point End Downlink Frequencies (MHz)
Time Altitude Azimuth
RS-15 27 Apr 20:04:15 20:12:06 21° 2° (N) 20:20:13 29.354- 29.394
MOZHAYETS 4 27 Apr 20:06:36 20:07:39 11° 298° (WNW) 20:08:28
CUBESAT XI-V 27 Apr 20:08:57 20:13:35 80° 102° (ESE) 20:18:12 437.345
Cosmos 2499 27 Apr 20:09:18 20:18:04 60° 283° (WNW) 20:26:33 435.465 / 435.565
PHONESAT 2.4 27 Apr 20:09:28 20:13:04 83° 183° (S) 20:16:40 2401.200-2431.200
M-CUBED/EXP-1 PRIME 27 Apr 20:09:50 20:13:58 67° 106° (ESE) 20:17:43 437.505
HO-68 27 Apr 20:13:48 20:19:32 28° 61° (ENE) 20:25:28 435.675
CUTE-I 27 Apr 20:16:42 20:20:59 24° 267° (W) 20:25:08 437.470
SO-50 27 Apr 20:16:49 20:21:26 38° 49° (NE) 20:26:02 436.795
Cubesat XI-IV 27 Apr 20:27:39 20:31:27 19° 269° (W) 20:35:03 437.490
SEEDS 27 Apr 20:32:54 20:34:59 14° 65° (ENE) 20:37:17 437.485
CANX-2 27 Apr 20:43:40 20:47:04 24° 69° (ENE) 20:50:34 2200.000
AAUSAT CUBESAT 2 27 Apr 20:44:52 20:46:43 13° 65° (ENE) 20:48:44 437.432
GOMX 1 27 Apr 20:45:32 20:49:13 30° 69° (ENE) 20:53:08 467.674
AUBIESAT-1 27 Apr 20:50:16 20:54:13 45° 293° (WNW) 20:57:49 437.475
CUTE 1.7 + AOD 2 27 Apr 20:52:16 20:55:50 26° 70° (ENE) 20:59:29 437.475
YUBILEINY 27 Apr 20:55:17 20:59:47 15° 57° (ENE) 21:04:50 435.215
VERMONT LUNAR 27 Apr 20:56:55 21:00:09 43° 199° (SSW) 21:03:22 437.305
STRAND 1 27 Apr 21:08:51 21:13:54 62° 286° (WNW) 21:18:55 437.568
BRITE-PL 27 Apr 21:09:05 21:13:14 88° 77° (ENE) 21:17:36 437.365/2234.400
DOVE 4 27 Apr 21:10:52 21:14:48 37° 71° (ENE) 21:19:01 437.250
PRISM 27 Apr 21:21:25 21:24:54 27° 291° (WNW) 21:28:18 437.425
CUBEBUG 2 27 Apr 21:24:11 21:26:37 15° 64° (ENE) 21:29:18 437.445
COMPASS 1 27 Apr 21:37:05 21:41:13 55° 74° (ENE) 21:45:23 437.405
CINEMA 3 27 Apr 21:38:21 21:42:23 38° 71° (ENE) 21:46:39 145.822/145.860
DELFI C3 27 Apr 21:39:54 21:42:34 18° 67° (ENE) 21:45:22 145.870
O/OREOS (USA 219) 27 Apr 21:43:36 21:45:35 13° 100° (E) 21:47:48 437.305
UWE-3 27 Apr 21:44:42 21:47:51 20° 67° (ENE) 21:51:11 435.000/436.395/437.385
M-CUBED/EXP-1 PRIME 27 Apr 21:46:40 21:48:14 12° 304° (NW) 21:49:35 437.505
PHONESAT 2.4 27 Apr 21:47:43 21:51:13 50° 197° (SSW) 21:54:42 2401.200-2431.200
FUNcube-1 27 Apr 21:48:32 21:51:20 17° 66° (ENE) 21:54:18 145.935
CUBESAT XI-V 27 Apr 21:48:56 21:50:27 11° 297° (WNW) 21:51:44 437.345
UKube-1 27 Apr 21:52:02 21:53:11 11° 63° (ENE) 21:54:34 .
SO-50 27 Apr 21:57:36 22:01:54 29° 246° (WSW) 22:06:04 436.795
HO-68 27 Apr 21:59:45 22:06:51 61° 258° (WSW) 22:13:59 435.675
SEEDS 27 Apr 22:06:11 22:10:23 55° 260° (W) 22:14:36 437.485
Oscar 11 27 Apr 22:07:20 22:11:31 48° 73° (ENE) 22:15:44 145.826/435.025
Cosmos 2499 27 Apr 22:10:07 22:13:24 12° 306° (NW) 22:15:59 435.465 / 435.565
ZACube-1 27 Apr 22:13:41 22:17:31 31° 70° (ENE) 22:21:30 437.345
AAUSAT CUBESAT 2 27 Apr 22:17:44 22:21:54 58° 260° (W) 22:26:05 437.432
RS-15 27 Apr 22:18:58 22:29:10 36° 35° (NE) 22:39:57 29.354- 29.394
CANX-2 27 Apr 22:19:04 22:22:54 30° 265° (W) 22:26:42 2200.000
GOMX 1 27 Apr 22:24:04 22:27:28 22° 268° (W) 22:30:54 467.674
VELOX 1 27 Apr 22:27:32 22:29:35 13° 64° (ENE) 22:31:50 145.980
CUTE 1.7 + AOD 2 27 Apr 22:28:01 22:31:43 27° 266° (W) 22:35:22 437.475
VERMONT LUNAR 27 Apr 22:35:49 22:37:07 12° 213° (SSW) 22:38:20 437.305
Cosmos 2491 27 Apr 22:40:41 22:48:10 35° 86° (E) 22:55:52 435.465 / 435.565
DX 1 27 Apr 22:45:00 22:49:05 43° 72° (ENE) 22:53:12 434.975-435.025
AISAT 27 Apr 22:45:01 22:48:16 21° 67° (ENE) 22:51:37 437.250
DOVE 4 27 Apr 22:49:44 22:52:50 19° 270° (W) 22:55:56 437.250
YUBILEINY 27 Apr 22:49:44 22:58:31 76° 80° (E) 23:07:13 435.215
CUBEBUG 2 27 Apr 22:58:34 23:02:52 55° 261° (W) 23:07:21 437.445
ANTELSAT 27 Apr 23:03:19 23:05:01 12° 87° (E) 23:06:59 437.575/2403.000
DELFI C3 27 Apr 23:13:38 23:17:28 38° 263° (W) 23:21:17 145.870
COMPASS 1 27 Apr 23:15:23 23:17:19 12° 271° (W) 23:19:02 437.405
CINEMA 3 27 Apr 23:16:33 23:19:49 20° 269° (W) 23:23:04 145.822/145.860
UWE-3 27 Apr 23:20:00 23:24:07 39° 263° (W) 23:28:22 435.000/436.395/437.385
O/OREOS (USA 219) 27 Apr 23:20:01 23:24:33 60° 295° (WNW) 23:29:06 437.305
FUNcube-1 27 Apr 23:23:07 23:27:19 46° 262° (W) 23:31:38 145.935
UKube-1 27 Apr 23:24:30 23:28:48 73° 258° (WSW) 23:33:07 .
HUMSAT D 27 Apr 23:25:19 23:29:34 88° 249° (WSW) 23:33:53 437.325/437.525
PHONESAT 2.4 27 Apr 23:26:51 23:29:00 15° 211° (SSW) 23:31:05 2401.200-2431.200
ESTCUBE 1 27 Apr 23:31:15 23:35:18 34° 70° (ENE) 23:39:24 437.505/2401.250
Oscar 11 27 Apr 23:45:26 23:48:01 15° 270° (W) 23:50:27 145.826/435.025
50 SAT 27 Apr 23:49:22 23:53:21 75° 258° (WSW) 23:57:25 437.505
TIGRISAT 27 Apr 23:50:20 23:54:41 37° 97° (E) 23:59:00 435.000
ZACube-1 27 Apr 23:50:21 23:53:56 24° 267° (W) 23:57:30 437.345
UNISAT 6 27 Apr 23:55:38 00:00:08 43° 98° (E) 00:04:34 437.425
Cosmos 2504 27 Apr 23:56:14 00:01:27 19° 61° (ENE) 00:06:48 435.465 / 435.565
DUCHIFAT 1 27 Apr 23:57:16 00:00:23 20° 93° (E) 00:03:36 145.980
POLYITAN 1 27 Apr 23:59:05 00:02:25 22° 93° (E) 00:05:50 437.675
CUBEBUG 1 27 Apr 23:59:47 00:04:02 60° 74° (ENE) 00:08:19 437.445
VELOX 1 28 Apr 00:01:21 00:05:42 61° 259° (W) 00:10:04 145.980
QB50P1 28 Apr 00:15:48 00:19:40 32° 96° (E) 00:23:34 145.935-145.965
AISAT 28 Apr 00:20:36 00:24:39 36° 263° (W) 00:28:44 437.250
DX 1 28 Apr 00:22:44 00:25:35 17° 269° (W) 00:28:17 434.975-435.025
AIST 1 28 Apr 00:23:34 00:25:48 14° 87° (E) 00:28:13
RS-15 28 Apr 00:31:24 00:43:00 82° 240° (WSW) 00:55:05 29.354- 29.394
TISAT 1 28 Apr 00:31:49 00:35:20 27° 70° (ENE) 00:38:57 437.305
Cosmos 2491 28 Apr 00:36:19 00:44:46 51° 285° (WNW) 00:53:16 435.465 / 435.565
ANTELSAT 28 Apr 00:37:41 00:42:24 68° 285° (WNW) 00:46:59 437.575/2403.000
QB50P2 28 Apr 00:42:29 00:46:47 68° 101° (ESE) 00:51:04 145.880/145.840
YUBILEINY 28 Apr 00:48:08 00:54:31 22° 279° (W) 01:00:27 435.215
NANOSAT C BR1 28 Apr 00:58:54 01:03:13 81° 284° (WNW) 01:07:30 145.865
POPSAT HIP 1 28 Apr 01:03:15 01:07:33 72° 285° (WNW) 01:11:50 437.405
ESTCUBE 1 28 Apr 01:08:42 01:12:17 22° 267° (W) 01:15:46 437.505/2401.250
SPROUT 28 Apr 01:10:51 01:15:08 84° 257° (WSW) 01:19:27 437.525
BUGSAT 1 28 Apr 01:14:52 01:19:02 77° 284° (WNW) 01:23:14 437.445
TIGRISAT 28 Apr 01:27:29 01:31:14 23° 293° (WNW) 01:34:49 435.000
DUCHIFAT 1 28 Apr 01:32:24 01:36:20 35° 289° (WNW) 01:40:12 145.980
UNISAT 6 28 Apr 01:33:09 01:36:37 20° 294° (WNW) 01:39:56 437.425
POLYITAN 1 28 Apr 01:34:32 01:38:24 32° 290° (WNW) 01:42:14 437.675
CUBEBUG 1 28 Apr 01:39:10 01:40:52 12° 272° (W) 01:42:19 437.445
ITUPSAT 1 28 Apr 01:46:03 01:50:12 30° 68° (ENE) 01:54:23 437.325
Cosmos 2504 28 Apr 01:48:08 01:56:09 82° 264° (W) 02:03:33 435.465 / 435.565
QB50P1 28 Apr 01:52:01 01:55:23 22° 292° (WNW) 01:58:39 145.935-145.965
AIST 1 28 Apr 01:58:59 02:03:07 44° 282° (WNW) 02:07:13
TISAT 1 28 Apr 02:07:40 02:11:07 24° 266° (W) 02:14:31 437.305
BEESAT 28 Apr 02:14:37 02:19:18 59° 73° (ENE) 02:24:02 436.000
SWISSCUBE 28 Apr 02:17:30 02:22:15 69° 75° (ENE) 02:27:02 437.505
QB50P2 28 Apr 02:20:32 02:22:12 12° 296° (WNW) 02:23:38 145.880/145.840
BEESAT 3 28 Apr 02:42:39 02:46:25 37° 116° (ESE) 02:50:15 437.485
RS-15 28 Apr 02:46:10 02:54:05 20° 258° (WSW) 03:01:22 29.354- 29.394
BEESAT 2 28 Apr 02:47:23 02:51:06 35° 116° (ESE) 02:54:54 435.950
Gurwin Techsat 1B 28 Apr 02:50:47 02:52:38 12° 87° (E) 02:54:50 435.225
DANDE 28 Apr 02:55:53 02:57:08 11° 56° (NE) 02:59:05 436.750
Oscar 19 28 Apr 03:02:57 03:08:07 62° 101° (E) 03:13:16 437.125/150
KKS-1 28 Apr 03:06:24 03:10:26 36° 71° (ENE) 03:14:33 437.445
GONETS M04 28 Apr 03:13:15 03:20:22 27° 65° (ENE) 03:27:42
ITUPSAT 1 28 Apr 03:23:54 03:28:04 29° 265° (W) 03:32:12 437.325
CUSAT 1 28 Apr 03:39:03 03:45:28 29° 67° (ENE) 03:52:31 437.405
ITAMSAT 1 28 Apr 03:43:22 03:48:18 44° 98° (E) 03:53:16 435.822/435.867
Cosmos 2504 28 Apr 03:44:38 03:48:16 13° 283° (WNW) 03:51:15 435.465 / 435.565
STARS 28 Apr 03:54:24 03:58:46 76° 75° (ENE) 04:03:11 437.465
BEESAT 28 Apr 03:54:54 03:57:37 14° 271° (W) 04:00:06 436.000
SWISSCUBE 28 Apr 03:58:37 04:00:42 12° 272° (W) 04:02:30 437.505
AIST 2 28 Apr 04:03:09 04:07:23 72° 120° (ESE) 04:11:41 435.215
BEESAT 3 28 Apr 04:21:15 04:24:33 23° 314° (NW) 04:27:50 437.485
BEESAT 2 28 Apr 04:25:52 04:29:18 24° 314° (NW) 04:32:42 435.950
Gurwin Techsat 1B 28 Apr 04:28:03 04:33:23 81° 286° (WNW) 04:38:42 435.225
DANDE 28 Apr 04:34:37 04:42:05 53° 75° (ENE) 04:50:27 436.750
Oscar 19 28 Apr 04:43:34 04:47:02 18° 297° (WNW) 04:50:19 437.125/150
KKS-1 28 Apr 04:43:51 04:47:13 21° 267° (W) 04:50:31 437.445
AO-7 28 Apr 04:59:01 05:06:21 34° 96° (E) 05:13:49 29.400- 29.500
GONETS M04 28 Apr 05:09:16 05:18:03 67° 267° (W) 05:26:44
HORYU 2 28 Apr 05:19:07 05:23:37 71° 102° (ESE) 05:28:05 437.375
CUSAT 1 28 Apr 05:20:59 05:28:46 69° 264° (W) 05:37:01 437.405
ITAMSAT 1 28 Apr 05:23:29 05:27:35 23° 295° (WNW) 05:31:33 435.822/435.867
M-CUBED/EXP-1 PRIME 28 Apr 05:25:42 05:27:29 12° 57° (ENE) 05:29:30 437.505
MOZHAYETS 4 28 Apr 05:27:58 05:32:37 78° 77° (ENE) 05:37:17
JAS-2 28 Apr 05:33:13 05:39:22 59° 99° (E) 05:44:49 435.910
AIST 2 28 Apr 05:43:51 05:46:31 15° 320° (NW) 05:49:04 435.215
Cosmos 2499 28 Apr 06:01:35 06:09:03 50° 75° (ENE) 06:16:02 435.465 / 435.565
AUBIESAT-1 28 Apr 06:03:18 06:07:04 24° 62° (ENE) 06:10:55 437.475
Gurwin Techsat 1B 28 Apr 06:10:57 06:12:37 11° 301° (WNW) 06:13:59 435.225
DANDE 28 Apr 06:18:13 06:25:14 36° 269° (W) 06:32:43 436.750
PRISM 28 Apr 06:36:47 06:39:41 19° 67° (ENE) 06:42:42 437.425
STRAND 1 28 Apr 06:46:55 06:50:50 23° 66° (ENE) 06:54:51 437.568
AO-7 28 Apr 06:51:26 06:59:29 54° 295° (WNW) 07:07:29 29.400- 29.500
CUTE-I 28 Apr 06:53:51 06:57:09 17° 90° (E) 07:00:41 437.470
M-CUBED/EXP-1 PRIME 28 Apr 06:56:52 07:01:42 88° 66° (ENE) 07:06:32 437.505
HORYU 2 28 Apr 06:57:48 06:59:45 12° 297° (WNW) 07:01:28 437.375
Cubesat XI-IV 28 Apr 07:03:50 07:07:47 22° 92° (E) 07:11:54 437.490
CUSAT 1 28 Apr 07:06:49 07:10:35 13° 278° (W) 07:13:51 437.405
MOZHAYETS 4 28 Apr 07:09:57 07:10:31 10° 274° (W) 07:10:44
GONETS M04 28 Apr 07:10:28 07:13:23 11° 285° (WNW) 07:15:33
CUBESAT XI-V 28 Apr 07:12:05 07:16:43 76° 75° (ENE) 07:21:20 437.345
JAS-2 28 Apr 07:19:18 07:23:54 21° 300° (WNW) 07:27:59 435.910
AUBIESAT-1 28 Apr 07:37:05 07:41:37 41° 257° (WSW) 07:46:08 437.475
O/OREOS (USA 219) 28 Apr 07:51:20 07:55:05 26° 58° (ENE) 07:58:52 437.305
Cosmos 2499 28 Apr 07:55:23 08:01:50 29° 275° (W) 08:07:46 435.465 / 435.565
PRISM 28 Apr 08:11:05 08:14:57 36° 262° (W) 08:18:46 437.425
PCSat 28 Apr 08:12:48 08:17:43 38° 112° (ESE) 08:22:44 145.827
STRAND 1 28 Apr 08:24:56 08:29:48 43° 261° (W) 08:34:39 437.568
CUTE-I 28 Apr 08:32:28 08:37:43 60° 288° (WNW) 08:42:57 437.470
M-CUBED/EXP-1 PRIME 28 Apr 08:36:15 08:37:13 10° 269° (W) 08:37:50 437.505
Cubesat XI-IV 28 Apr 08:43:05 08:48:11 48° 289° (WNW) 08:53:16 437.490
AO-7 28 Apr 08:47:18 08:50:37 13° 315° (NW) 08:53:30 29.400- 29.500
GOMX 1 28 Apr 08:48:29 08:50:09 12° 86° (E) 08:52:11 467.674
Cosmos 2491 28 Apr 08:51:26 08:56:30 17° 58° (ENE) 09:02:05 435.465 / 435.565
CUBESAT XI-V 28 Apr 08:54:03 08:54:48 10° 273° (W) 08:55:13 437.345
DOVE 4 28 Apr 09:11:01 09:13:17 13° 87° (E) 09:15:52 437.250
BRITE-PL 28 Apr 09:12:56 09:17:33 31° 95° (E) 09:22:28 437.365/2234.400
HO-68 28 Apr 09:28:08 09:33:55 27° 93° (E) 09:39:51 435.675
O/OREOS (USA 219) 28 Apr 09:30:34 09:34:32 31° 255° (WSW) 09:38:25 437.305
CINEMA 3 28 Apr 09:35:39 09:36:43 11° 86° (E) 09:38:07 145.822/145.860
SEEDS 28 Apr 09:51:13 09:54:37 24° 93° (E) 09:58:05 437.485
PCSat 28 Apr 09:56:20 10:01:13 32° 310° (NW) 10:06:04 145.827
YUBILEINY 28 Apr 09:58:09 10:02:57 17° 79° (ENE) 10:08:19 435.215
AAUSAT CUBESAT 2 28 Apr 10:01:34 10:04:45 21° 93° (E) 10:08:01 437.432
ANTELSAT 28 Apr 10:03:04 10:04:36 12° 62° (ENE) 10:06:25 437.575/2403.000
CANX-2 28 Apr 10:04:01 10:08:08 45° 98° (E) 10:12:13 2200.000
CUTE 1.7 + AOD 2 28 Apr 10:12:40 10:16:50 51° 99° (E) 10:20:59 437.475
GOMX 1 28 Apr 10:23:42 10:28:56 86° 287° (WNW) 10:34:24 467.674
SO-50 28 Apr 10:34:58 10:35:49 11° 107° (ESE) 10:36:59 436.795
ISS 28 Apr 10:43:27 10:44:27 11° 130° (SE) 10:45:35 145.825
Cosmos 2491 28 Apr 10:46:14 10:55:07 81° 81° (E) 11:03:59 435.465 / 435.565
DOVE 4 28 Apr 10:46:26 10:51:37 77° 284° (WNW) 10:56:56 437.250
TIGRISAT 28 Apr 10:49:01 10:53:02 33° 70° (ENE) 10:57:13 435.000
CUBEBUG 2 28 Apr 10:49:50 10:54:07 32° 95° (E) 10:58:24 437.445
DUCHIFAT 1 28 Apr 10:50:32 10:52:58 16° 66° (ENE) 10:55:34 145.980
BRITE-PL 28 Apr 10:51:23 10:56:03 34° 289° (WNW) 11:00:54 437.365/2234.400
POLYITAN 1 28 Apr 10:52:50 10:55:34 17° 66° (ENE) 10:58:27 437.675
DELFI C3 28 Apr 10:53:18 10:56:45 27° 95° (E) 11:00:13 145.870
UNISAT 6 28 Apr 10:54:28 10:58:40 38° 71° (ENE) 11:03:00 437.425
COMPASS 1 28 Apr 10:56:11 11:00:24 75° 284° (WNW) 11:04:33 437.405
BEESAT 3 28 Apr 11:01:37 11:05:02 25° 47° (NE) 11:08:26 437.485
BEESAT 2 28 Apr 11:06:49 11:10:11 24° 46° (NE) 11:13:34 435.950
QB50P1 28 Apr 11:08:53 11:12:17 25° 69° (ENE) 11:15:48 145.935-145.965
CINEMA 3 28 Apr 11:09:34 11:14:38 85° 281° (WNW) 11:19:40 145.822/145.860
UWE-3 28 Apr 11:09:43 11:14:11 42° 97° (E) 11:18:36 435.000/436.395/437.385
HUMSAT D 28 Apr 11:10:55 11:13:28 16° 90° (E) 11:16:10 437.325/437.525
FUNcube-1 28 Apr 11:11:38 11:15:49 34° 96° (E) 11:19:59 145.935
UKube-1 28 Apr 11:13:02 11:16:01 18° 92° (E) 11:19:07 .
HO-68 28 Apr 11:15:04 11:22:07 59° 291° (WNW) 11:29:05 435.675
SEEDS 28 Apr 11:26:46 11:30:26 28° 290° (WNW) 11:34:01 437.485
50 SAT 28 Apr 11:28:11 11:30:08 14° 90° (E) 11:32:15 437.505
Oscar 11 28 Apr 11:30:37 11:34:59 81° 283° (WNW) 11:39:18 145.826/435.025
QB50P2 28 Apr 11:35:17 11:39:21 49° 73° (ENE) 11:43:30 145.880/145.840
ANTELSAT 28 Apr 11:36:13 11:40:47 78° 257° (WSW) 11:45:28 437.575/2403.000
AAUSAT CUBESAT 2 28 Apr 11:36:44 11:40:26 30° 289° (WNW) 11:44:04 437.432
ZACube-1 28 Apr 11:37:58 11:42:35 68° 101° (E) 11:47:07 437.345
CANX-2 28 Apr 11:40:59 11:43:44 16° 294° (WNW) 11:46:20 2200.000
YUBILEINY 28 Apr 11:49:49 11:58:40 87° 96° (E) 12:07:32 435.215
CUTE 1.7 + AOD 2 28 Apr 11:49:55 11:52:22 15° 295° (WNW) 11:54:40 437.475
CUBEBUG 1 28 Apr 11:51:06 11:52:16 11° 88° (E) 11:53:43 437.445
NANOSAT C BR1 28 Apr 11:51:11 11:55:22 74° 76° (ENE) 11:59:37 145.865
VELOX 1 28 Apr 11:52:22 11:56:00 25° 94° (E) 11:59:43 145.980
POPSAT HIP 1 28 Apr 11:55:44 11:59:57 83° 76° (ENE) 12:04:12 437.405
GOMX 1 28 Apr 12:04:20 12:06:27 12° 298° (WNW) 12:08:18 467.674
BUGSAT 1 28 Apr 12:04:48 12:08:47 72° 76° (ENE) 12:12:49 437.445
AIST 1 28 Apr 12:06:02 12:10:04 40° 77° (ENE) 12:14:08
DX 1 28 Apr 12:09:10 12:13:33 83° 103° (ESE) 12:17:55 434.975-435.025
AISAT 28 Apr 12:11:02 12:15:15 41° 98° (E) 12:19:30 437.250
SO-50 28 Apr 12:11:02 12:15:41 85° 301° (WNW) 12:20:33 436.795
ISS 28 Apr 12:17:10 12:20:25 79° 327° (NNW) 12:23:41 145.825
DUCHIFAT 1 28 Apr 12:24:25 12:28:27 46° 261° (W) 12:32:32 145.980
AIST 2 28 Apr 12:25:08 12:29:14 45° 52° (NE) 12:33:15 435.215
TIGRISAT 28 Apr 12:26:06 12:29:51 25° 267° (W) 12:33:37 435.000
CUBEBUG 2 28 Apr 12:26:39 12:30:42 27° 291° (WNW) 12:34:37 437.445
POLYITAN 1 28 Apr 12:27:11 12:31:12 41° 262° (W) 12:35:15 437.675
DOVE 4 28 Apr 12:27:35 12:28:40 10° 299° (WNW) 12:29:26 437.250
DELFI C3 28 Apr 12:28:34 12:31:48 23° 291° (WNW) 12:34:55 145.870
UNISAT 6 28 Apr 12:32:06 12:35:37 21° 268° (W) 12:39:05 437.425
Cosmos 2504 28 Apr 12:35:34 12:40:29 17° 79° (E) 12:45:54 435.465 / 435.565
BEESAT 3 28 Apr 12:39:24 12:43:05 32° 245° (WSW) 12:46:41 437.485
QB50P1 28 Apr 12:44:27 12:48:06 27° 265° (W) 12:51:42 145.935-145.965
Oscar 19 28 Apr 12:44:32 12:46:10 12° 60° (ENE) 12:48:04 437.125/150
BEESAT 2 28 Apr 12:44:36 12:48:23 34° 244° (WSW) 12:52:04 435.950
Cosmos 2491 28 Apr 12:44:51 12:51:04 21° 279° (W) 12:56:51 435.465 / 435.565
HUMSAT D 28 Apr 12:45:21 12:49:31 45° 287° (WNW) 12:53:37 437.325/437.525
UWE-3 28 Apr 12:46:54 12:50:26 21° 293° (WNW) 12:53:49 435.000/436.395/437.385
FUNcube-1 28 Apr 12:48:16 12:51:59 24° 292° (WNW) 12:55:35 145.935
UKube-1 28 Apr 12:48:18 12:52:21 39° 289° (WNW) 12:56:21 .
CINEMA 3 28 Apr 12:49:39 12:51:08 11° 299° (WNW) 12:52:18 145.822/145.860
RS-15 28 Apr 12:50:45 12:54:31 13° 98° (E) 12:59:21 29.354- 29.394
SPROUT 28 Apr 12:58:42 13:01:30 17° 91° (E) 13:04:26 437.525
ESTCUBE 1 28 Apr 13:00:12 13:04:42 76° 101° (E) 13:09:12 437.505/2401.250
50 SAT 28 Apr 13:01:21 13:05:15 45° 287° (WNW) 13:09:04 437.505
HO-68 28 Apr 13:06:08 13:08:32 12° 310° (NW) 13:10:30 435.675
QB50P2 28 Apr 13:13:21 13:15:38 14° 270° (W) 13:17:43 145.880/145.840
ZACube-1 28 Apr 13:16:08 13:18:26 13° 296° (WNW) 13:20:30 437.345
CUBEBUG 1 28 Apr 13:24:49 13:29:09 65° 285° (WNW) 13:33:29 437.445
VELOX 1 28 Apr 13:28:40 13:32:35 30° 291° (WNW) 13:36:27 145.980
AIST 1 28 Apr 13:44:47 13:47:25 16° 273° (W) 13:49:54
AISAT 28 Apr 13:48:21 13:51:36 19° 294° (WNW) 13:54:43 437.250
YUBILEINY 28 Apr 13:50:32 13:56:53 20° 299° (WNW) 14:02:50 435.215
TISAT 1 28 Apr 13:51:20 13:55:29 50° 99° (E) 13:59:39 437.305
SO-50 28 Apr 13:54:14 13:57:03 15° 324° (NW) 13:59:47 436.795
ISS 28 Apr 13:54:48 13:57:12 18° 343° (NNW) 13:59:34 145.825
AIST 2 28 Apr 14:04:38 14:07:29 17° 249° (WSW) 14:10:11 435.215
Gurwin Techsat 1B 28 Apr 14:11:01 14:14:49 21° 64° (ENE) 14:18:47 435.225
AO-7 28 Apr 14:13:22 14:14:38 11° 43° (NE) 14:16:26 29.400- 29.500
BEESAT 28 Apr 14:16:24 14:19:02 15° 90° (E) 14:21:52 436.000
SWISSCUBE 28 Apr 14:19:05 14:22:10 18° 91° (E) 14:25:26 437.505
Oscar 19 28 Apr 14:19:39 14:24:49 87° 71° (ENE) 14:30:03 437.125/150
Cosmos 2504 28 Apr 14:23:58 14:32:52 85° 96° (E) 14:41:38 435.465 / 435.565
SPROUT 28 Apr 14:33:43 14:37:49 41° 288° (WNW) 14:41:53 437.525
ESTCUBE 1 28 Apr 14:39:31 14:41:02 11° 297° (WNW) 14:42:20 437.505/2401.250
RS-15 28 Apr 14:54:20 15:05:01 69° 117° (ESE) 15:16:01 29.354- 29.394
ITAMSAT 1 28 Apr 15:01:13 15:06:21 67° 74° (ENE) 15:11:30 435.822/435.867
VERMONT LUNAR 28 Apr 15:15:21 15:16:29 11° 147° (SSE) 15:17:43 437.305
ITUPSAT 1 28 Apr 15:23:43 15:28:30 73° 103° (ESE) 15:33:15 437.325
TISAT 1 28 Apr 15:28:24 15:30:54 15° 295° (WNW) 15:33:15 437.305
ISS 28 Apr 15:32:49 15:34:30 13° 4° (N) 15:36:11 145.825
JAS-2 28 Apr 15:43:34 15:50:12 33° 65° (ENE) 15:56:43 435.910
STARS 28 Apr 15:45:46 15:48:05 14° 90° (E) 15:50:37 437.465
Gurwin Techsat 1B 28 Apr 15:49:18 15:54:28 52° 260° (W) 15:59:40 435.225
BEESAT 28 Apr 15:52:38 15:57:18 56° 287° (WNW) 16:01:57 436.000
SWISSCUBE 28 Apr 15:55:46 16:00:21 48° 288° (WNW) 16:04:54 437.505
AO-7 28 Apr 15:57:50 16:05:34 47° 64° (ENE) 16:13:25 29.400- 29.500
Oscar 19 28 Apr 16:03:46 16:04:59 11° 274° (W) 16:05:51 437.125/150
GONETS M04 28 Apr 16:14:50 16:21:58 30° 84° (E) 16:29:24
PHONESAT 2.4 28 Apr 16:14:54 16:16:21 12° 147° (SSE) 16:17:54 2401.200-2431.200
HORYU 2 28 Apr 16:17:07 16:21:33 64° 74° (ENE) 16:26:01 437.375
Cosmos 2504 28 Apr 16:20:52 16:27:29 22° 297° (WNW) 16:33:38 435.465 / 435.565
KKS-1 28 Apr 16:33:34 16:38:05 77° 103° (ESE) 16:42:34 437.445
ITAMSAT 1 28 Apr 16:43:32 16:46:26 14° 271° (W) 16:49:04 435.822/435.867
CUSAT 1 28 Apr 16:50:04 16:52:05 14° 81° (E) 16:54:34 437.405
VERMONT LUNAR 28 Apr 16:50:14 16:53:26 42° 162° (SSE) 16:56:40 437.305
PCSat 28 Apr 17:00:31 17:05:21 32° 50° (NE) 17:10:12 145.827
ITUPSAT 1 28 Apr 17:03:34 17:05:51 13° 298° (WNW) 17:07:55 437.325
RS-15 28 Apr 17:08:08 17:18:16 40° 322° (NW) 17:28:35 29.354- 29.394
ISS 28 Apr 17:08:53 17:11:42 26° 23° (NNE) 17:14:31 145.825
STARS 28 Apr 17:20:35 17:24:56 53° 287° (WNW) 17:29:15 437.465
MOZHAYETS 4 28 Apr 17:24:17 17:27:24 18° 91° (E) 17:30:39
JAS-2 28 Apr 17:27:12 17:34:56 57° 261° (W) 17:42:20 435.910
DANDE 28 Apr 17:48:42 17:52:03 40° 91° (E) 17:56:30 436.750
PHONESAT 2.4 28 Apr 17:50:39 17:54:04 44° 161° (SSE) 17:57:30 2401.200-2431.200
AO-7 28 Apr 17:50:50 17:58:32 40° 262° (W) 18:06:07 29.400- 29.500
HORYU 2 28 Apr 17:56:52 17:58:43 12° 272° (W) 18:00:18 437.375
GONETS M04 28 Apr 18:09:44 18:18:22 59° 283° (WNW) 18:27:04
KKS-1 28 Apr 18:12:35 18:14:10 11° 298° (WNW) 18:15:31 437.445
CUTE-I 28 Apr 18:15:21 18:19:48 29° 67° (ENE) 18:24:22 437.470
Cubesat XI-IV 28 Apr 18:25:36 18:30:24 36° 68° (ENE) 18:35:14 437.490
VERMONT LUNAR 28 Apr 18:27:23 18:30:46 82° 178° (S) 18:34:10 437.305
CUSAT 1 28 Apr 18:30:11 18:33:58 46° 287° (WNW) 18:39:00 437.405
Cosmos 2499 28 Apr 18:36:26 18:44:34 44° 89° (E) 18:52:35 435.465 / 435.565
PCSat 28 Apr 18:43:50 18:48:51 38° 248° (WSW) 18:53:47 145.827
ISS 28 Apr 18:45:02 18:48:11 47° 220° (SW) 18:51:19 145.825
MOZHAYETS 4 28 Apr 19:00:32 19:04:54 42° 288° (WNW) 19:09:10
SO-50 28 Apr 19:03:21 19:06:14 15° 37° (NE) 19:09:14 436.795
CUBESAT XI-V 28 Apr 19:09:48 19:13:00 19° 91° (E) 19:16:21 437.345
AUBIESAT-1 28 Apr 19:20:23 19:22:16 13° 93° (E) 19:24:15 437.475
RS-15 28 Apr 19:27:05 19:35:00 21° 355° (N) 19:43:04 29.354- 29.394
PHONESAT 2.4 28 Apr 19:28:35 19:32:11 82° 179° (S) 19:35:47 2401.200-2431.200
DANDE 28 Apr 19:33:38 19:35:59 14° 301° (WNW) 19:38:31 436.750
PRISM 28 Apr 19:53:33 19:57:06 29° 96° (E) 20:00:42 437.425
